GW0341 Weather Reports


time (UTC)temp
C
wind
direction
speed
KPH
gust
KPH
rain 1hr
cm
rain 24hr
cm
rain mn
cm
humidity
%
barometer
mb
20260504042031 10 0.0 0.0 0.00 0.00 0.00 74 1017.9
20260504041545 10 0.0 0.0 0.00 0.00 0.00 73 1017.9
20260504041028 10 0.0 0.0 0.00 0.00 0.00 73 1017.8
20260504040529 10 0.0 0.0 0.00 0.00 0.00 72 1017.8
20260504040043 10 0.0 0.0 0.00 0.00 0.00 72 1017.9
20260504035528 11 0.0 0.0 0.00 0.00 0.00 70 1017.9
20260504035027 11 0.0 0.0 0.00 0.00 0.00 69 1017.9
20260504034542 11 0.0 0.0 0.00 0.00 0.00 69 1017.9
20260504034027 11 0.0 0.0 0.00 0.00 0.00 67 1017.9
20260504033531 11 0.0 0.0 0.00 0.00 0.00 66 1017.9
20260504033037 11 0.0 0.0 0.00 0.00 0.00 67 1017.8
20260504032528 11 0.0 0.0 0.00 0.00 0.00 67 1017.7
20260504032028 11 0.0 0.0 0.00 0.00 0.00 68 1017.7
20260504031543 10 0.0 0.0 0.00 0.00 0.00 68 1017.6
20260504031028 11 0.0 0.0 0.00 0.00 0.00 68 1017.7
20260504030528 11 0.0 0.0 0.00 0.00 0.00 67 1017.7
20260504030045 11 0.0 0.0 0.00 0.00 0.00 65 1017.6
20260504025526 11 0.0 0.0 0.00 0.00 0.00 64 1017.5
20260504025029 12 0.0 0.0 0.00 0.00 0.00 62 1017.6
20260504024542 12 0.0 0.0 0.00 0.00 0.00 61 1017.6
20260504024029 12 0.0 0.0 0.00 0.00 0.00 62 1017.6
20260504023527 12 0.0 0.0 0.00 0.00 0.00 59 1017.5
20260504023037 12 0.0 0.0 0.00 0.00 0.00 59 1017.4
20260504022527 12 0.0 0.0 0.00 0.00 0.00 57 1017.3
20260504022028 13 0.0 0.0 0.00 0.00 0.00 57 1017.2
20260504021543 13 0.0 0.0 0.00 0.00 0.00 56 1017.1
20260504021029 13 0.0 0.0 0.00 0.00 0.00 56 1017.1
20260504020523 13 0.0 0.0 0.00 0.00 0.00 55 1017.0
20260504020044 13 0.0 0.0 0.00 0.00 0.00 54 1017.0
20260504015523 13 0.0 0.0 0.00 0.00 0.00 52 1017.0
20260504015030 13 0.0 0.0 0.00 0.00 0.00 53 1017.1
20260504014559 13 0.0 0.0 0.00 0.00 0.00 55 1017.1
20260504014030 14 0.0 0.0 0.00 0.00 0.00 51 1017.1
20260504013530 14 0.0 0.0 0.00 0.00 0.00 50 1017.0
20260504013050 14 0.0 0.0 0.00 0.00 0.00 51 1017.1
20260504012527 15 0.0 0.0 0.00 0.00 0.00 49 1017.0
20260504012026 15 0.0 0.0 0.00 0.00 0.00 48 1017.0
20260504011543 14 0.0 0.0 0.00 0.00 0.00 49 1017.0
20260504011025 14 0.0 0.0 0.00 0.00 0.00 49 1017.0
20260504010525 14 0.0 0.0 0.00 0.00 0.00 50 1017.0
20260504010040 15 0.0 0.0 0.00 0.00 0.00 49 1016.9
20260504005526 15 0.0 0.0 0.00 0.00 0.00 51 1017.0
20260504005027 15 0.0 0.0 0.00 0.00 0.00 50 1016.9
20260504004537 15 0.0 0.0 0.00 0.00 0.00 51 1017.0
20260504004026 15 0.0 0.0 0.00 0.00 0.00 50 1016.9
20260504003526 15 0.0 0.0 0.00 0.00 0.00 50 1016.7
20260504003045 15 0.0 0.0 0.00 0.00 0.00 50 1016.7
20260504002526 15 0.0 0.0 0.00 0.00 0.00 50 1016.7
20260504002026 15 0.0 0.0 0.00 0.00 0.00 51 1016.7
20260504001546 15 0.0 0.0 0.00 0.00 0.00 51 1016.6
20260504001026 15 0.0 0.0 0.00 0.00 0.00 50 1016.6
20260504000526 15 0.0 0.0 0.00 0.00 0.00 51 1016.6
20260504000048 16 0.0 0.0 0.00 0.00 0.00 49 1016.7
20260503235526 16 0.0 0.0 0.00 0.00 0.00 50 1016.8
20260503235026 16 0.0 0.0 0.00 0.00 0.00 50 1016.8
20260503234548 16 0.0 0.0 0.00 0.00 0.00 51 1016.8
20260503234026 16 0.0 0.0 0.00 0.00 0.00 49 1016.8
20260503233526 17 0.0 0.0 0.00 0.00 0.00 47 1016.8
20260503233037 17 0.0 0.0 0.00 0.00 0.00 47 1016.9
20260503232526 17 0.0 0.0 0.00 0.00 0.00 45 1017.0
20260503232027 17 0.0 0.0 0.00 0.00 0.00 44 1017.1
20260503231541 17 0.0 0.0 0.00 0.00 0.00 43 1017.1
20260503231029 17 0.0 0.0 0.00 0.00 0.00 43 1017.1
20260503230528 17 0.0 0.0 0.00 0.00 0.00 43 1017.1
20260503230042 17 0.0 0.0 0.00 0.00 0.00 44 1017.1
20260503225530 17 0.0 0.0 0.00 0.00 0.00 44 1017.1
20260503225026 17 0.0 0.0 0.00 0.00 0.00 45 1017.2
20260503224544 17 0.0 0.0 0.00 0.00 0.00 45 1017.2
20260503224026 17 0.0 0.0 0.00 0.00 0.00 40 1017.1
20260503223526 17 0.0 0.0 0.00 0.00 0.00 40 1017.1
20260503223044 18 0.0 0.0 0.00 0.00 0.00 41 1017.1
20260503222526 18 0.0 0.0 0.00 0.00 0.00 38 1017.1
20260503222026 18 0.0 0.0 0.00 0.00 0.00 42 1017.1
20260503221541 18 0.0 0.0 0.00 0.00 0.00 36 1017.2
20260503221026 18 0.0 0.0 0.00 0.00 0.00 36 1017.3
20260503220528 18 0.0 0.0 0.00 0.00 0.00 35 1017.3
20260503220048 18 0.0 0.0 0.00 0.00 0.00 37 1017.2
20260503215528 18 0.0 0.0 0.00 0.00 0.00 34 1017.3
20260503215026 18 0.0 0.0 0.00 0.00 0.00 36 1017.4
20260503214538 18 0.0 0.0 0.00 0.00 0.00 35 1017.4
20260503214027 18 0.0 0.0 0.00 0.00 0.00 36 1017.4
20260503213527 19 0.0 0.0 0.00 0.00 0.00 33 1017.4
20260503213038 19 0.0 0.0 0.00 0.00 0.00 32 1017.5
20260503212527 19 0.0 0.0 0.00 0.00 0.00 32 1017.6
20260503212027 20 0.0 0.0 0.00 0.00 0.00 29 1017.5
20260503211544 20 0.0 0.0 0.00 0.00 0.00 32 1017.6
20260503211026 20 0.0 0.0 0.00 0.00 0.00 31 1017.7
20260503210527 20 0.0 0.0 0.00 0.00 0.00 30 1017.6
20260503210046 20 0.0 0.0 0.00 0.00 0.00 33 1017.8
20260503205529 20 0.0 0.0 0.00 0.00 0.00 36 1017.8
20260503205027 20 0.0 0.0 0.00 0.00 0.00 32 1017.8
20260503204543 20 0.0 0.0 0.00 0.00 0.00 36 1017.9
20260503204026 19 0.0 0.0 0.00 0.00 0.00 35 1017.9
20260503203527 19 0.0 0.0 0.00 0.00 0.00 47 1017.9
20260503203045 19 0.0 0.0 0.00 0.00 0.00 48 1018.1
20260503202527 19 0.0 0.0 0.00 0.00 0.00 47 1018.0
20260503202027 18 0.0 0.0 0.00 0.00 0.00 46 1018.1
20260503201542 18 0.0 0.0 0.00 0.00 0.00 48 1018.2
20260503201026 18 0.0 0.0 0.00 0.00 0.00 47 1018.3
20260503200526 18 0.0 0.0 0.00 0.00 0.00 47 1018.2
20260503200043 18 0.0 0.0 0.00 0.00 0.00 48 1018.2
20260503195526 18 0.0 0.0 0.00 0.00 0.00 48 1018.3
20260503195026 18 0.0 0.0 0.00 0.00 0.00 47 1018.5
20260503194539 18 0.0 0.0 0.00 0.00 0.00 49 1018.6
20260503194026 18 0.0 0.0 0.00 0.00 0.00 46 1018.6
20260503193525 18 0.0 0.0 0.00 0.00 0.00 49 1018.7
20260503193049 18 0.0 0.0 0.00 0.00 0.00 51 1018.7
20260503192527 17 0.0 0.0 0.00 0.00 0.00 49 1018.9
20260503192029 17 0.0 0.0 0.00 0.00 0.00 50 1018.8
20260503191542 17 0.0 0.0 0.00 0.00 0.00 50 1019.0
20260503191026 17 0.0 0.0 0.00 0.00 0.00 48 1019.1
20260503190526 17 0.0 0.0 0.00 0.00 0.00 47 1019.3
20260503190041 17 0.0 0.0 0.00 0.00 0.00 49 1019.3
20260503185528 17 0.0 0.0 0.00 0.00 0.00 49 1019.3
20260503185026 17 0.0 0.0 0.00 0.00 0.00 49 1019.3
20260503184554 17 0.0 0.0 0.00 0.00 0.00 49 1019.4
20260503184027 17 0.0 0.0 0.00 0.00 0.00 49 1019.5
20260503183528 17 0.0 0.0 0.00 0.00 0.00 50 1019.5
20260503183054 17 0.0 0.0 0.00 0.00 0.00 48 1019.5
20260503182528 17 0.0 0.0 0.00 0.00 0.00 48 1019.6
20260503182026 17 0.0 0.0 0.00 0.00 0.00 49 1019.7
20260503181538 17 0.0 0.0 0.00 0.00 0.00 48 1019.8
20260503181026 17 0.0 0.0 0.00 0.00 0.00 47 1019.9
20260503180526 17 0.0 0.0 0.00 0.00 0.00 48 1019.9
20260503180037 17 0.0 0.0 0.00 0.00 0.00 53 1020.0
20260503175526 16 0.0 0.0 0.00 0.00 0.00 49 1020.0
20260503175030 16 0.0 0.0 0.00 0.00 0.00 50 1020.1
20260503174541 16 0.0 0.0 0.00 0.00 0.00 49 1020.2
20260503174028 16 0.0 0.0 0.00 0.00 0.00 53 1020.2
20260503173528 16 0.0 0.0 0.00 0.00 0.00 51 1020.4
20260503173045 16 0.0 0.0 0.00 0.00 0.00 55 1020.4
20260503172528 16 0.0 0.0 0.00 0.00 0.00 55 1020.5
20260503172028 16 0.0 0.0 0.00 0.00 0.00 54 1020.7
20260503171541 16 0.0 0.0 0.00 0.00 0.00 50 1020.7
20260503171031 16 0.0 0.0 0.00 0.00 0.00 51 1020.7
20260503170529 16 0.0 0.0 0.00 0.00 0.00 55 1020.9
20260503150528 12 0.0 0.0 0.00 0.00 0.00 60 1022.2
20260503131028 7 0.0 0.0 0.00 0.00 0.00 87 1022.1
20260503130528 7 0.0 0.0 0.00 0.00 0.00 88 1022.1
20260503110527 4 0.0 0.0 0.00 0.00 0.00 94 1021.3
20260503081609 5 0.0 0.0 0.00 0.00 0.00 91 1019.8
20260503081027 5 0.0 0.0 0.00 0.00 0.00 91 1019.7
20260503080527 6 0.0 0.0 0.00 0.00 0.00 91 1019.7
20260503072526 6 0.0 0.0 0.00 0.00 0.00 90 1019.5
20260503072026 6 0.0 0.0 0.00 0.00 0.00 89 1019.4
20260503071543 6 0.0 0.0 0.00 0.00 0.00 89 1019.4
20260503071026 6 0.0 0.0 0.00 0.00 0.00 89 1019.3
20260503070526 6 0.0 0.0 0.00 0.00 0.00 89 1019.4
20260503055026 7 0.0 0.0 0.00 0.00 0.00 86 1019.3
20260503054551 7 0.0 0.0 0.00 0.00 0.00 85 1019.2
20260503054028 7 0.0 0.0 0.00 0.00 0.00 85 1019.2
20260503053526 7 0.0 0.0 0.00 0.00 0.00 85 1019.2
20260503053042 7 0.0 0.0 0.00 0.00 0.00 84 1019.1
20260503052526 7 0.0 0.0 0.00 0.00 0.00 84 1019.1
20260503052026 7 0.0 0.0 0.00 0.00 0.00 84 1019.1
20260503051541 7 0.0 0.0 0.00 0.00 0.00 84 1019.1
20260503051026 7 0.0 0.0 0.00 0.00 0.00 83 1019.1
20260503050528 7 0.0 0.0 0.00 0.00 0.00 84 1019.1
20260503050042 7 0.0 0.0 0.00 0.00 0.00 84 1019.1
20260503045529 7 0.0 0.0 0.00 0.00 0.00 83 1019.1
20260503045027 8 0.0 0.0 0.00 0.00 0.00 83 1019.0
20260503044541 8 0.0 0.0 0.00 0.00 0.00 83 1018.9
20260503044027 8 0.0 0.0 0.00 0.00 0.00 83 1018.9
20260503043526 8 0.0 0.0 0.00 0.00 0.00 83 1019.0
20260503043037 8 0.0 0.0 0.00 0.00 0.00 83 1019.0
20260503042525 8 0.0 0.0 0.00 0.00 0.00 82 1018.9